This demonstration page uses our WeatherBlox Daily Observations layout. Learn more.

Left ArrowRight Arrow

Hourly Observations for March 25, 2017

Temp ( °F °C ) Dew Point ( °F °C ) Humidity (%) Winds ( mph kmh ) Pressure ( in mb ) Visibility ( mi km ) Precip ( " mm )
12:52 am 00:52 Mostly Clear 55 12.8 50 10 83 83 SSE 10 17 29.77 1008 9 14 0.00 0.00
1:52 am 01:52 Clear 54 12.2 50 10 87 87 SSE 16 26 29.75 1008 10 16 0.00 0.00
2:52 am 02:52 Mostly Clear 53 11.7 50 10 89 89 SSE 13 20 29.75 1008 10 16 0.00 0.00
3:52 am 03:52 Mostly Clear 52 11.1 50 10 93 93 SE 13 20 29.75 1007 10 16 0.00 0.00
4:52 am 04:52 Mostly Clear 53 11.7 50 10 89 89 SE 13 20 29.73 1007 10 16 0.00 0.00
5:52 am 05:52 Cloudy 53 11.7 50 10 89 89 SE 14 22 29.74 1007 10 16 0.00 0.00
6:52 am 06:52 Cloudy 53 11.7 50 10 89 89 SSE 13 20 29.75 1007 10 16 0.00 0.00
7:12 am 07:12 Cloudy 54 12 50 10 88 88 SSE 13 20 29.77 1008 10 16 0.00 0.00
7:42 am 07:42 Cloudy with Nearby Thunderstorms 53 11.7 51 10.6 93 93 SSE 10 17 29.77 1008 10 16 0.00 0.03
7:52 am 07:52 Cloudy with Nearby Thunderstorms 53 11.7 51 10.6 93 93 SSE 12 19 29.76 1008 6 10 0.01 0.25
8:48 am 08:48 Cloudy with Light Rain 54 12 52 11 94 94 SSE 10 17 29.80 1009 6 10 0.00 0.00
8:52 am 08:52 Cloudy with Light Rain 53 11.7 52 11.1 96 96 SSE 8 13 29.78 1009 7 11 0.06 1.52
9:52 am 09:52 Cloudy with Light Rain 54 12.2 51 10.6 90 90 WSW 5 7 29.78 1008 8 13 0.03 0.76
10:52 am 10:52 Cloudy with Light Rain 56 13.3 52 11.1 87 87 SSW 5 7 29.79 1009 10 16 0.01 0.25
11:52 am 11:52 Cloudy 59 15 50 10 72 72 Calm 29.78 1008 10 16 0.00 0.03
12:52 pm 12:52 Cloudy 58 14.4 52 11.1 81 81 WSW 9 15 29.78 1008 10 16 0.00 0.00
1:15 pm 13:15 Cloudy 56 13.3 52 11.1 87 87 W 18 30 29.80 1009 10 16 0.00 0.00
1:27 pm 13:27 Cloudy with Light Rain 52 11.1 51 10.6 97 97 W 16 26 29.80 1009 5 8 0.00 0.03
1:52 pm 13:52 Cloudy with Light Rain 53 11.7 51 10.6 93 93 W 13 20 29.81 1009 10 16 0.03 0.76
2:34 pm 14:34 Cloudy 52 11 50 10 94 94 W 15 24 29.83 1010 10 16 0.00 0.00
2:52 pm 14:52 Cloudy 52 11.1 50 10 93 93 W 15 24 29.82 1010 10 16 0.00 0.03
3:52 pm 15:52 Cloudy 52 11.1 48 8.9 86 86 W 14 22 29.83 1010 10 16 0.00 0.00
4:52 pm 16:52 Cloudy 50 10 47 8.3 89 89 WSW 17 28 29.85 1011 10 16 0.00 0.00
5:52 pm 17:52 Cloudy with Mist and Fog 49 9.4 46 7.8 90 90 SW 13 20 29.86 1011 5 8 0.00 0.00
6:52 pm 18:52 Cloudy 48 8.9 45 7.2 89 89 SW 12 19 29.87 1012 10 16 0.00 0.00
7:27 pm 19:27 Cloudy 48 8.9 45 7.2 89 89 WSW 9 15 29.91 1013 10 16 0.00 0.00
7:52 pm 19:52 Cloudy 48 8.9 44 6.7 86 86 W 10 17 29.88 1012 10 16 0.00 0.00
8:13 pm 20:13 Cloudy 48 8.9 44 6.7 86 86 W 10 17 29.91 1013 10 16 0.00 0.00
8:45 pm 20:45 Cloudy 48 8.9 44 6.7 86 86 W 10 17 29.91 1013 10 16 0.00 0.00
8:52 pm 20:52 Cloudy 48 8.9 44 6.7 86 86 WSW 13 20 29.90 1012 10 16 0.00 0.00
9:52 pm 21:52 Cloudy 47 8.3 43 6.1 86 86 W 8 13 29.90 1013 10 16 0.00 0.00
10:35 pm 22:35 Cloudy 47 8.3 43 6.1 86 86 SW 7 11 29.94 1014 10 16 0.00 0.00
10:52 pm 22:52 Cloudy 47 8.3 43 6.1 86 86 WSW 9 15 29.90 1013 10 16 0.00 0.00
11:29 pm 23:29 Cloudy with Mist and Fog 47 8.3 44 6.7 90 90 WSW 10 17 29.94 1014 6 10 0.00 0.00
11:52 pm 23:52 Cloudy with Mist and Fog 46 7.8 44 6.7 93 93 WSW 9 15 29.90 1013 4 6 0.00 0.00

Powered by AerisWeather